Time,TemperatureF,DewpointF,PressureIn,WindDirection,WindDirectionDegrees,WindSpeedMPH,WindSpeedGustMPH,Humidity,HourlyPrecipIn,Conditions,Clouds,dailyrainin,SoftwareType,DateUTC
2013-05-09 00:00:00,61.4,45.1,29.87,WNW,292,3.0,8.0,55,0.00,,,0.00,LWC V2.00 B2112,2013-05-09 07:00:00,
2013-05-09 00:10:00,61.4,45.1,29.87,WNW,292,3.0,8.0,55,0.00,,,0.00,LWC V2.00 B2112,2013-05-09 07:10:00,
2013-05-09 00:20:00,61.0,42.2,29.88,WNW,292,4.0,7.0,50,0.00,,,0.00,LWC V2.00 B2112,2013-05-09 07:20:00,
2013-05-09 00:30:00,61.0,42.2,29.88,WNW,292,4.0,7.0,50,0.00,,,0.00,LWC V2.00 B2112,2013-05-09 07:30:00,
2013-05-09 00:40:00,61.0,42.2,29.88,WNW,292,4.0,7.0,50,0.00,,,0.00,LWC V2.00 B2112,2013-05-09 07:40:00,
2013-05-09 00:50:00,61.0,42.2,29.88,WNW,292,4.0,7.0,50,0.00,,,0.00,LWC V2.00 B2112,2013-05-09 07:50:00,
2013-05-09 01:00:00,61.0,42.2,29.88,WNW,292,4.0,7.0,50,0.00,,,0.00,LWC V2.00 B2112,2013-05-09 08:00:00,
2013-05-09 01:10:00,61.0,42.2,29.88,WNW,292,4.0,7.0,50,0.00,,,0.00,LWC V2.00 B2112,2013-05-09 08:10:00,
2013-05-09 01:20:00,61.1,41.3,29.90,WNW,292,4.0,8.0,48,0.00,,,0.00,LWC V2.00 B2112,2013-05-09 08:20:00,
2013-05-09 01:30:00,61.1,41.3,29.90,WNW,292,4.0,8.0,48,0.00,,,0.00,LWC V2.00 B2112,2013-05-09 08:30:00,
2013-05-09 01:40:00,61.1,41.3,29.90,WNW,292,4.0,8.0,48,0.00,,,0.00,LWC V2.00 B2112,2013-05-09 08:40:00,
2013-05-09 01:50:00,61.1,41.3,29.90,WNW,292,4.0,8.0,48,0.00,,,0.00,LWC V2.00 B2112,2013-05-09 08:50:00,
2013-05-09 02:00:00,61.1,41.3,29.90,WNW,292,4.0,8.0,48,0.00,,,0.00,LWC V2.00 B2112,2013-05-09 09:00:00,
2013-05-09 02:10:00,61.1,41.3,29.90,WNW,292,4.0,8.0,48,0.00,,,0.00,LWC V2.00 B2112,2013-05-09 09:10:00,
2013-05-09 02:20:00,60.0,40.2,29.91,WNW,292,6.0,10.0,48,0.00,,,0.00,LWC V2.00 B2112,2013-05-09 09:20:00,
2013-05-09 02:30:00,60.0,40.2,29.91,WNW,292,6.0,10.0,48,0.00,,,0.00,LWC V2.00 B2112,2013-05-09 09:30:00,
2013-05-09 02:40:00,60.0,40.2,29.91,WNW,292,6.0,10.0,48,0.00,,,0.00,LWC V2.00 B2112,2013-05-09 09:40:00,
2013-05-09 02:50:00,60.0,40.2,29.91,WNW,292,6.0,10.0,48,0.00,,,0.00,LWC V2.00 B2112,2013-05-09 09:50:00,
2013-05-09 03:00:00,60.0,40.2,29.91,WNW,292,6.0,10.0,48,0.00,,,0.00,LWC V2.00 B2112,2013-05-09 10:00:00,
2013-05-09 03:10:00,60.0,40.2,29.91,WNW,292,6.0,10.0,48,0.00,,,0.00,LWC V2.00 B2112,2013-05-09 10:10:00,
2013-05-09 03:20:00,57.4,41.4,29.92,WNW,292,4.0,9.0,55,0.00,,,0.00,LWC V2.00 B2112,2013-05-09 10:20:00,
2013-05-09 03:30:00,57.4,41.4,29.92,WNW,292,4.0,9.0,55,0.00,,,0.00,LWC V2.00 B2112,2013-05-09 10:30:00,
2013-05-09 03:40:00,57.4,41.4,29.92,WNW,292,4.0,9.0,55,0.00,,,0.00,LWC V2.00 B2112,2013-05-09 10:40:00,
2013-05-09 03:50:00,57.4,41.4,29.92,WNW,292,4.0,9.0,55,0.00,,,0.00,LWC V2.00 B2112,2013-05-09 10:50:00,
2013-05-09 04:00:00,57.4,41.4,29.92,WNW,292,4.0,9.0,55,0.00,,,0.00,LWC V2.00 B2112,2013-05-09 11:00:00,
2013-05-09 04:10:00,57.4,41.4,29.92,WNW,292,4.0,9.0,55,0.00,,,0.00,LWC V2.00 B2112,2013-05-09 11:10:00,
2013-05-09 04:20:00,55.2,39.3,29.93,WNW,292,5.0,9.0,55,0.00,,,0.00,LWC V2.00 B2112,2013-05-09 11:20:00,
2013-05-09 04:30:00,55.2,39.3,29.93,WNW,292,5.0,9.0,55,0.00,,,0.00,LWC V2.00 B2112,2013-05-09 11:30:00,
2013-05-09 04:40:00,55.2,39.3,29.93,WNW,292,5.0,9.0,55,0.00,,,0.00,LWC V2.00 B2112,2013-05-09 11:40:00,
2013-05-09 04:50:00,55.2,39.3,29.93,WNW,292,5.0,9.0,55,0.00,,,0.00,LWC V2.00 B2112,2013-05-09 11:50:00,
2013-05-09 05:00:00,55.2,39.3,29.93,WNW,292,5.0,9.0,55,0.00,,,0.00,LWC V2.00 B2112,2013-05-09 12:00:00,
2013-05-09 05:10:00,55.2,39.3,29.93,WNW,292,5.0,9.0,55,0.00,,,0.00,LWC V2.00 B2112,2013-05-09 12:10:00,
2013-05-09 05:20:00,52.3,38.4,29.94,WNW,292,2.0,8.0,59,0.00,,,0.00,LWC V2.00 B2112,2013-05-09 12:20:00,
2013-05-09 05:30:00,52.3,38.4,29.94,WNW,292,2.0,8.0,59,0.00,,,0.00,LWC V2.00 B2112,2013-05-09 12:30:00,
2013-05-09 05:40:00,52.3,38.4,29.94,WNW,292,2.0,8.0,59,0.00,,,0.00,LWC V2.00 B2112,2013-05-09 12:40:00,
2013-05-09 05:50:00,52.3,38.4,29.94,WNW,292,2.0,8.0,59,0.00,,,0.00,LWC V2.00 B2112,2013-05-09 12:50:00,
2013-05-09 06:00:00,52.3,38.4,29.94,WNW,292,2.0,8.0,59,0.00,,,0.00,LWC V2.00 B2112,2013-05-09 13:00:00,
2013-05-09 06:10:00,52.3,38.4,29.94,WNW,292,2.0,8.0,59,0.00,,,0.00,LWC V2.00 B2112,2013-05-09 13:10:00,
2013-05-09 06:20:00,50.5,38.4,29.96,WNW,292,2.0,9.0,63,0.00,,,0.00,LWC V2.00 B2112,2013-05-09 13:20:00,
2013-05-09 06:30:00,50.5,38.4,29.96,WNW,292,2.0,9.0,63,0.00,,,0.00,LWC V2.00 B2112,2013-05-09 13:30:00,
2013-05-09 06:40:00,50.5,38.4,29.96,WNW,292,2.0,9.0,63,0.00,,,0.00,LWC V2.00 B2112,2013-05-09 13:40:00,
2013-05-09 06:50:00,50.5,38.4,29.96,WNW,292,2.0,9.0,63,0.00,,,0.00,LWC V2.00 B2112,2013-05-09 13:50:00,
2013-05-09 07:00:00,50.5,38.4,29.96,WNW,292,2.0,9.0,63,0.00,,,0.00,LWC V2.00 B2112,2013-05-09 14:00:00,
2013-05-09 07:10:00,50.5,38.4,29.96,WNW,292,2.0,9.0,63,0.00,,,0.00,LWC V2.00 B2112,2013-05-09 14:10:00,
2013-05-09 07:20:00,49.6,38.3,29.98,WNW,292,1.0,8.0,65,0.00,,,0.00,LWC V2.00 B2112,2013-05-09 14:20:00,
2013-05-09 07:30:00,49.6,38.3,29.98,WNW,292,1.0,8.0,65,0.00,,,0.00,LWC V2.00 B2112,2013-05-09 14:30:00,
2013-05-09 07:40:00,49.6,38.3,29.98,WNW,292,1.0,8.0,65,0.00,,,0.00,LWC V2.00 B2112,2013-05-09 14:40:00,
2013-05-09 07:50:00,49.6,38.3,29.98,WNW,292,1.0,8.0,65,0.00,,,0.00,LWC V2.00 B2112,2013-05-09 14:50:00,
2013-05-09 08:00:00,49.6,38.3,29.98,WNW,292,1.0,8.0,65,0.00,,,0.00,LWC V2.00 B2112,2013-05-09 15:00:00,
2013-05-09 08:10:00,49.6,38.3,29.98,WNW,292,1.0,8.0,65,0.00,,,0.00,LWC V2.00 B2112,2013-05-09 15:10:00,
2013-05-09 08:20:00,54.2,38.4,29.98,North,0,0.0,1.0,55,0.00,,,0.00,LWC V2.00 B2112,2013-05-09 15:20:00,
2013-05-09 08:30:00,54.2,38.4,29.98,North,0,0.0,1.0,55,0.00,,,0.00,LWC V2.00 B2112,2013-05-09 15:30:00,
2013-05-09 08:40:00,54.2,38.4,29.98,North,0,0.0,1.0,55,0.00,,,0.00,LWC V2.00 B2112,2013-05-09 15:40:00,
2013-05-09 08:50:00,54.2,38.4,29.98,North,0,0.0,1.0,55,0.00,,,0.00,LWC V2.00 B2112,2013-05-09 15:50:00,
2013-05-09 09:00:00,54.2,38.4,29.98,North,0,0.0,1.0,55,0.00,,,0.00,LWC V2.00 B2112,2013-05-09 16:00:00,
2013-05-09 09:10:00,54.2,38.4,29.98,North,0,0.0,1.0,55,0.00,,,0.00,LWC V2.00 B2112,2013-05-09 16:10:00,
2013-05-09 09:20:00,65.1,32.9,29.98,North,0,0.0,1.0,30,0.00,,,0.00,LWC V2.00 B2112,2013-05-09 16:20:00,
2013-05-09 09:30:00,65.1,32.9,29.98,North,0,0.0,1.0,30,0.00,,,0.00,LWC V2.00 B2112,2013-05-09 16:30:00,
2013-05-09 09:40:00,65.1,32.9,29.98,North,0,0.0,1.0,30,0.00,,,0.00,LWC V2.00 B2112,2013-05-09 16:40:00,
2013-05-09 09:50:00,65.1,32.9,29.98,North,0,0.0,1.0,30,0.00,,,0.00,LWC V2.00 B2112,2013-05-09 16:50:00,
2013-05-09 10:00:00,65.1,32.9,29.98,North,0,0.0,1.0,30,0.00,,,0.00,LWC V2.00 B2112,2013-05-09 17:00:00,
2013-05-09 10:10:00,65.1,32.9,29.98,North,0,0.0,1.0,30,0.00,,,0.00,LWC V2.00 B2112,2013-05-09 17:10:00,
2013-05-09 10:20:00,71.1,33.5,29.97,SE,135,0.0,6.0,25,0.00,,,0.00,LWC V2.00 B2112,2013-05-09 17:20:00,
2013-05-09 10:30:00,71.1,33.5,29.97,SE,135,0.0,6.0,25,0.00,,,0.00,LWC V2.00 B2112,2013-05-09 17:30:00,
2013-05-09 10:40:00,71.1,33.5,29.97,SE,135,0.0,6.0,25,0.00,,,0.00,LWC V2.00 B2112,2013-05-09 17:40:00,
2013-05-09 10:50:00,71.1,33.5,29.97,SE,135,0.0,6.0,25,0.00,,,0.00,LWC V2.00 B2112,2013-05-09 17:50:00,
2013-05-09 11:00:00,71.1,33.5,29.97,SE,135,0.0,6.0,25,0.00,,,0.00,LWC V2.00 B2112,2013-05-09 18:00:00,
2013-05-09 11:10:00,71.1,33.5,29.97,SE,135,0.0,6.0,25,0.00,,,0.00,LWC V2.00 B2112,2013-05-09 18:10:00,
2013-05-09 11:20:00,75.0,39.7,29.95,SE,135,1.0,8.0,28,0.00,,,0.00,LWC V2.00 B2112,2013-05-09 18:20:00,
2013-05-09 11:30:00,75.0,39.7,29.95,SE,135,1.0,8.0,28,0.00,,,0.00,LWC V2.00 B2112,2013-05-09 18:30:00,
2013-05-09 11:40:00,75.0,39.7,29.95,SE,135,1.0,8.0,28,0.00,,,0.00,LWC V2.00 B2112,2013-05-09 18:40:00,
2013-05-09 11:50:00,75.0,39.7,29.95,SE,135,1.0,8.0,28,0.00,,,0.00,LWC V2.00 B2112,2013-05-09 18:50:00,
2013-05-09 12:00:00,75.0,39.7,29.95,SE,135,1.0,8.0,28,0.00,,,0.00,LWC V2.00 B2112,2013-05-09 19:00:00,
2013-05-09 12:10:00,75.0,39.7,29.95,SE,135,1.0,8.0,28,0.00,,,0.00,LWC V2.00 B2112,2013-05-09 19:10:00,
2013-05-09 12:20:00,78.0,38.3,29.93,SE,135,1.0,7.0,24,0.00,,,0.00,LWC V2.00 B2112,2013-05-09 19:20:00,
2013-05-09 12:30:00,78.0,38.3,29.93,SE,135,1.0,7.0,24,0.00,,,0.00,LWC V2.00 B2112,2013-05-09 19:30:00,
2013-05-09 12:40:00,78.0,38.3,29.93,SE,135,1.0,7.0,24,0.00,,,0.00,LWC V2.00 B2112,2013-05-09 19:40:00,
2013-05-09 12:50:00,78.0,38.3,29.93,SE,135,1.0,7.0,24,0.00,,,0.00,LWC V2.00 B2112,2013-05-09 19:50:00,
2013-05-09 13:00:00,78.0,38.3,29.93,SE,135,1.0,7.0,24,0.00,,,0.00,LWC V2.00 B2112,2013-05-09 20:00:00,
2013-05-09 13:10:00,78.0,38.3,29.93,SE,135,1.0,7.0,24,0.00,,,0.00,LWC V2.00 B2112,2013-05-09 20:10:00,
2013-05-09 13:20:00,81.7,35.4,29.91,SE,135,1.0,8.0,19,0.00,,,0.00,LWC V2.00 B2112,2013-05-09 20:20:00,
2013-05-09 13:30:00,81.7,35.4,29.91,SE,135,1.0,8.0,19,0.00,,,0.00,LWC V2.00 B2112,2013-05-09 20:30:00,
2013-05-09 13:40:00,81.7,35.4,29.91,SE,135,1.0,8.0,19,0.00,,,0.00,LWC V2.00 B2112,2013-05-09 20:40:00,
2013-05-09 13:50:00,81.7,35.4,29.91,SE,135,1.0,8.0,19,0.00,,,0.00,LWC V2.00 B2112,2013-05-09 20:50:00,
2013-05-09 14:00:00,81.7,35.4,29.91,SE,135,1.0,8.0,19,0.00,,,0.00,LWC V2.00 B2112,2013-05-09 21:00:00,
2013-05-09 14:10:00,81.7,35.4,29.91,SE,135,1.0,8.0,19,0.00,,,0.00,LWC V2.00 B2112,2013-05-09 21:10:00,
2013-05-09 14:20:00,85.2,20.0,29.89,SE,135,1.0,8.0,9,0.00,,,0.00,LWC V2.00 B2112,2013-05-09 21:20:00,
2013-05-09 14:30:00,85.2,20.0,29.89,SE,135,1.0,8.0,9,0.00,,,0.00,LWC V2.00 B2112,2013-05-09 21:30:00,
2013-05-09 14:40:00,85.2,20.0,29.89,SE,135,1.0,8.0,9,0.00,,,0.00,LWC V2.00 B2112,2013-05-09 21:40:00,
2013-05-09 14:50:00,85.2,20.0,29.89,SE,135,1.0,8.0,9,0.00,,,0.00,LWC V2.00 B2112,2013-05-09 21:50:00,
2013-05-09 15:00:00,85.2,20.0,29.89,SE,135,1.0,8.0,9,0.00,,,0.00,LWC V2.00 B2112,2013-05-09 22:00:00,
2013-05-09 15:10:00,85.2,20.0,29.89,SE,135,1.0,8.0,9,0.00,,,0.00,LWC V2.00 B2112,2013-05-09 22:10:00,
2013-05-09 15:20:00,88.3,24.8,29.87,SE,135,1.0,7.0,10,0.00,,,0.00,LWC V2.00 B2112,2013-05-09 22:20:00,
2013-05-09 15:30:00,88.3,24.8,29.87,SE,135,1.0,7.0,10,0.00,,,0.00,LWC V2.00 B2112,2013-05-09 22:30:00,
2013-05-09 15:40:00,88.3,24.8,29.87,SE,135,1.0,7.0,10,0.00,,,0.00,LWC V2.00 B2112,2013-05-09 22:40:00,
2013-05-09 15:50:00,88.3,24.8,29.87,SE,135,1.0,7.0,10,0.00,,,0.00,LWC V2.00 B2112,2013-05-09 22:50:00,
2013-05-09 16:00:00,88.3,24.8,29.87,SE,135,1.0,7.0,10,0.00,,,0.00,LWC V2.00 B2112,2013-05-09 23:00:00,
2013-05-09 16:10:00,88.3,24.8,29.87,SE,135,1.0,7.0,10,0.00,,,0.00,LWC V2.00 B2112,2013-05-09 23:10:00,
2013-05-09 16:20:00,91.0,36.9,29.85,SSW,202,1.0,8.0,15,0.00,,,0.00,LWC V2.00 B2112,2013-05-09 23:20:00,
2013-05-09 16:30:00,91.0,36.9,29.85,SSW,202,1.0,8.0,15,0.00,,,0.00,LWC V2.00 B2112,2013-05-09 23:30:00,
2013-05-09 16:40:00,91.0,36.9,29.85,SSW,202,1.0,8.0,15,0.00,,,0.00,LWC V2.00 B2112,2013-05-09 23:40:00,
2013-05-09 16:50:00,91.0,36.9,29.85,SSW,202,1.0,8.0,15,0.00,,,0.00,LWC V2.00 B2112,2013-05-09 23:50:00,
2013-05-09 17:00:00,91.0,36.9,29.85,SSW,202,1.0,8.0,15,0.00,,,0.00,LWC V2.00 B2112,2013-05-10 00:00:00,
2013-05-09 17:10:00,91.0,36.9,29.85,SSW,202,1.0,8.0,15,0.00,,,0.00,LWC V2.00 B2112,2013-05-10 00:10:00,
2013-05-09 17:20:00,92.3,30.2,29.84,NW,315,2.0,15.0,11,0.00,,,0.00,LWC V2.00 B2112,2013-05-10 00:20:00,
2013-05-09 17:30:00,92.3,30.2,29.84,NW,315,2.0,15.0,11,0.00,,,0.00,LWC V2.00 B2112,2013-05-10 00:30:00,
2013-05-09 17:40:00,92.3,30.2,29.84,NW,315,2.0,15.0,11,0.00,,,0.00,LWC V2.00 B2112,2013-05-10 00:40:00,
2013-05-09 17:50:00,92.3,30.2,29.84,NW,315,2.0,15.0,11,0.00,,,0.00,LWC V2.00 B2112,2013-05-10 00:50:00,
2013-05-09 18:00:00,92.3,30.2,29.84,NW,315,2.0,15.0,11,0.00,,,0.00,LWC V2.00 B2112,2013-05-10 01:00:00,
2013-05-09 18:10:00,92.3,30.2,29.84,NW,315,2.0,15.0,11,0.00,,,0.00,LWC V2.00 B2112,2013-05-10 01:10:00,
2013-05-09 18:20:00,89.5,30.2,29.85,NW,315,5.0,18.0,12,0.00,,,0.00,LWC V2.00 B2112,2013-05-10 01:20:00,
2013-05-09 18:30:00,89.5,30.2,29.85,NW,315,5.0,18.0,12,0.00,,,0.00,LWC V2.00 B2112,2013-05-10 01:30:00,
2013-05-09 18:40:00,89.5,30.2,29.85,NW,315,5.0,18.0,12,0.00,,,0.00,LWC V2.00 B2112,2013-05-10 01:40:00,
2013-05-09 18:50:00,89.5,30.2,29.85,NW,315,5.0,18.0,12,0.00,,,0.00,LWC V2.00 B2112,2013-05-10 01:50:00,
2013-05-09 19:00:00,89.5,30.2,29.85,NW,315,5.0,18.0,12,0.00,,,0.00,LWC V2.00 B2112,2013-05-10 02:00:00,
2013-05-09 19:10:00,89.5,30.2,29.85,NW,315,5.0,18.0,12,0.00,,,0.00,LWC V2.00 B2112,2013-05-10 02:10:00,
2013-05-09 19:20:00,87.0,33.7,29.85,NW,315,5.0,17.0,15,0.00,,,0.00,LWC V2.00 B2112,2013-05-10 02:20:00,
2013-05-09 19:30:00,87.0,33.7,29.85,NW,315,5.0,17.0,15,0.00,,,0.00,LWC V2.00 B2112,2013-05-10 02:30:00,
2013-05-09 19:40:00,87.0,33.7,29.85,NW,315,5.0,17.0,15,0.00,,,0.00,LWC V2.00 B2112,2013-05-10 02:40:00,
2013-05-09 19:50:00,87.0,33.7,29.85,NW,315,5.0,17.0,15,0.00,,,0.00,LWC V2.00 B2112,2013-05-10 02:50:00,
2013-05-09 20:00:00,87.0,33.7,29.85,NW,315,5.0,17.0,15,0.00,,,0.00,LWC V2.00 B2112,2013-05-10 03:00:00,
2013-05-09 20:10:00,87.0,33.7,29.85,NW,315,5.0,17.0,15,0.00,,,0.00,LWC V2.00 B2112,2013-05-10 03:10:00,
2013-05-09 20:20:00,78.9,52.5,29.88,WNW,292,2.0,14.0,40,0.00,,,0.00,LWC V2.00 B2112,2013-05-10 03:20:00,
2013-05-09 20:30:00,78.9,52.5,29.88,WNW,292,2.0,14.0,40,0.00,,,0.00,LWC V2.00 B2112,2013-05-10 03:30:00,
2013-05-09 20:40:00,78.9,52.5,29.88,WNW,292,2.0,14.0,40,0.00,,,0.00,LWC V2.00 B2112,2013-05-10 03:40:00,
2013-05-09 20:50:00,78.9,52.5,29.88,WNW,292,2.0,14.0,40,0.00,,,0.00,LWC V2.00 B2112,2013-05-10 03:50:00,
2013-05-09 21:00:00,78.9,52.5,29.88,WNW,292,2.0,14.0,40,0.00,,,0.00,LWC V2.00 B2112,2013-05-10 04:00:00,
2013-05-09 21:10:00,78.9,52.5,29.88,WNW,292,2.0,14.0,40,0.00,,,0.00,LWC V2.00 B2112,2013-05-10 04:10:00,
2013-05-09 21:20:00,66.1,50.9,29.90,SSW,202,0.0,2.0,58,0.00,,,0.00,LWC V2.00 B2112,2013-05-10 04:20:00,
2013-05-09 21:30:00,66.1,50.9,29.90,SSW,202,0.0,2.0,58,0.00,,,0.00,LWC V2.00 B2112,2013-05-10 04:30:00,
2013-05-09 21:40:00,66.1,50.9,29.90,SSW,202,0.0,2.0,58,0.00,,,0.00,LWC V2.00 B2112,2013-05-10 04:40:00,
2013-05-09 21:50:00,66.1,50.9,29.90,SSW,202,0.0,2.0,58,0.00,,,0.00,LWC V2.00 B2112,2013-05-10 04:50:00,
2013-05-09 22:00:00,66.1,50.9,29.90,SSW,202,0.0,2.0,58,0.00,,,0.00,LWC V2.00 B2112,2013-05-10 05:00:00,
2013-05-09 22:10:00,66.1,50.9,29.90,SSW,202,0.0,2.0,58,0.00,,,0.00,LWC V2.00 B2112,2013-05-10 05:10:00,
2013-05-09 22:20:00,59.9,47.3,29.93,SSW,202,0.0,2.0,63,0.00,,,0.00,LWC V2.00 B2112,2013-05-10 05:20:00,
2013-05-09 22:30:00,59.9,47.3,29.93,SSW,202,0.0,2.0,63,0.00,,,0.00,LWC V2.00 B2112,2013-05-10 05:30:00,
2013-05-09 22:40:00,59.9,47.3,29.93,SSW,202,0.0,2.0,63,0.00,,,0.00,LWC V2.00 B2112,2013-05-10 05:40:00,
2013-05-09 22:50:00,59.9,47.3,29.93,SSW,202,0.0,2.0,63,0.00,,,0.00,LWC V2.00 B2112,2013-05-10 05:50:00,
2013-05-09 23:00:00,59.9,47.3,29.93,SSW,202,0.0,2.0,63,0.00,,,0.00,LWC V2.00 B2112,2013-05-10 06:00:00,
2013-05-09 23:10:00,59.9,47.3,29.93,SSW,202,0.0,2.0,63,0.00,,,0.00,LWC V2.00 B2112,2013-05-10 06:10:00,
2013-05-09 23:20:00,57.7,41.2,29.93,WNW,292,2.0,8.0,54,0.00,,,0.00,LWC V2.00 B2112,2013-05-10 06:20:00,
2013-05-09 23:30:00,57.7,41.2,29.93,WNW,292,2.0,8.0,54,0.00,,,0.00,LWC V2.00 B2112,2013-05-10 06:30:00,
2013-05-09 23:40:00,57.7,41.2,29.93,WNW,292,2.0,8.0,54,0.00,,,0.00,LWC V2.00 B2112,2013-05-10 06:40:00,
2013-05-09 23:50:00,57.7,41.2,29.93,WNW,292,2.0,8.0,54,0.00,,,0.00,LWC V2.00 B2112,2013-05-10 06:50:00,